Regional Weather Roundup
Issued by NWS

Home | Current Version | Previous Version | Text Only | Print | Product List | Glossary Off
Versions: 1 2 3 4 5 6 7 8 9 10 11 12 13 14 15 16 17 18 19 20 21 22 23 24 25 26 27 28 29 30 31 32 33 34 35 36 37 38 39 40 41 42 43 44 45 46 47 48 49 50

486
ASUS45 KCYS 232210
RWRWY

WYOMING REGIONAL WEATHER ROUNDUP
NATIONAL WEATHER SERVICE CHEYENNE WY
400 PM MDT THU MAR 23 2017

NOTE:  "FAIR" INDICATES FEW OR NO CLOUDS BELOW 12,000 FEET
WITH NO SIGNIFICANT WEATHER AND/OR OBSTRUCTIONS TO VISIBILITY.

WYZ001-232300-
YELLOWSTONE NATIONAL PARK

CITY           SKY/WX    TMP DP  RH WIND       PRES   REMARKS
LK YELLOWSTONE   N/A     40  22  48 NW6       29.87R
W YELLOWSTONE  NOT AVBL

$$
WYZ002>013-054>058-071-098>099-232300-
NORTHERN WYOMING

CITY           SKY/WX    TMP DP  RH WIND       PRES   REMARKS
JACKSON        PTSUNNY   45  28  53 W7        29.84R
CODY           FAIR      45  30  55 N16       29.87R
GREYBULL       CLOUDY    49  33  54 NW23G32   29.79R
WORLAND        LGT RAIN  44  39  82 N23       29.79R
SHERIDAN       LGT RAIN  44  40  85 NW12      29.86R
BUFFALO        LGT RAIN  40  35  83 N14G25    29.85R WCI  32
GILLETTE       LGT RAIN  40  32  73 N20       29.80R WCI  30
HULETT         RAIN      37  37 100 N9        29.81R WCI  31
NEWCASTLE      FAIR      55  36  47 NW21      29.68R

$$
WYZ014>020-022>026-101>103-232300-
CENTRAL WYOMING

CITY           SKY/WX    TMP DP  RH WIND       PRES   REMARKS
BIG PINEY      LGT RAIN  35  34  96 N18       29.81R WCI  24
PINEDALE       CLOUDY    34  34 100 NW18G24   29.82R WCI  23
DUBOIS         CLOUDY    36  32  87 NW3       29.82R
LANDER         LGT RAIN  39  36  89 N13       29.81R WCI  31
RIVERTON       LGT RAIN  38  37  97 NW8       29.83R FOG     WCI  32
CASPER         CLOUDY    41  35  79 N24       29.78R
DOUGLAS        PTSUNNY   47  39  74 N25G33    29.71R

$$
WYZ021-027>030-104>119-232300-
SOUTHERN WYOMING

CITY           SKY/WX    TMP DP  RH WIND       PRES   REMARKS
EVANSTON       SNOW      33  30  88 W16       29.86R VSB 1/2 WCI  23
KEMMERER       SNOW      34  32  93 W16       29.83R VSB 1/4 WCI  23
FORT BRIDGER   CLOUDY    37  37  99 W21       29.86R WCI  26
ROCK SPRINGS   CLOUDY    46  35  65 W12       29.77R
DIXON            N/A     56  24  29 SW13G26   29.74R
RAWLINS        FAIR      49  34  56 NW20      29.73R
SARATOGA       MOCLDY    54  21  28 SW16G26   29.73R
LARAMIE        FAIR      57  10  15 S21       29.68R
CHEYENNE       PTSUNNY   64  14  14 CALM      29.62R
TORRINGTON     CLOUDY    64  36  35 NE12      29.58R
PINE BLUFFS    FAIR      70  12  11 NW13G18   29.56F

$$




USA.gov is the U.S. government's official web portal to all federal, state and local government web resources and services.